Location: Buena Vista Beach
(41.8098°N, 81.1279°W)
Time: 17:42:17
(UTC+00:00)

NOSS 3-3 (A) - Pass Details

Date: 29 October 2020
Orbit: 826 x 1387 km, 63.4° (Epoch: 22 November)

Event Time Altitude Azimuth Distance (km) Brightness Sun altitude
Rises 23:23:40 0° 205° (SSW) 3,379 7.3 -12.0°
Reaches altitude 10° 23:26:01 10° 203° (SSW) 2,479 6.6 -12.5°
Maximum altitude 23:31:41 69° 121° (ESE) 973 3.8 -13.5°
Drops below altitude 10° 23:38:03 10° 39° (NE) 2,780 6.0 -14.7°
Enters shadow 23:38:34 - 39° (NE) 2,976 6.1 -14.8°
